Time,TemperatureF,DewpointF,PressureIn,WindDirection,WindDirectionDegrees,WindSpeedMPH,WindSpeedGustMPH,Humidity,HourlyPrecipIn,Conditions,Clouds,dailyrainin,SoftwareType,DateUTC
2013-07-29 00:01:00,59.8,58.7,29.94,North,5,0.0,0.0,96,0.00,,,0.00,Wunderground v.1.15,2013-07-29 04:01:00,
2013-07-29 00:02:00,59.8,58.7,29.94,North,5,0.0,0.0,96,0.00,,,0.00,Wunderground v.1.15,2013-07-29 04:02:00,
2013-07-29 00:03:00,59.8,58.7,29.94,North,5,0.0,0.0,96,0.00,,,0.00,Wunderground v.1.15,2013-07-29 04:03:00,
2013-07-29 00:04:00,59.8,58.7,29.94,North,5,0.0,0.0,96,0.00,,,0.00,Wunderground v.1.15,2013-07-29 04:04:00,
2013-07-29 00:08:00,59.8,58.7,29.94,North,5,0.0,0.0,96,0.00,,,0.00,Wunderground v.1.15,2013-07-29 04:08:00,
2013-07-29 00:14:00,59.8,58.7,29.95,North,5,0.0,0.0,96,0.00,,,0.00,Wunderground v.1.15,2013-07-29 04:14:00,
2013-07-29 00:19:00,59.8,58.7,29.95,North,5,0.0,0.0,96,0.00,,,0.00,Wunderground v.1.15,2013-07-29 04:19:00,
2013-07-29 00:24:00,59.8,58.7,29.95,North,5,0.0,0.0,96,0.00,,,0.00,Wunderground v.1.15,2013-07-29 04:24:00,
2013-07-29 00:29:00,59.8,58.7,29.95,North,5,0.0,0.0,96,0.00,,,0.00,Wunderground v.1.15,2013-07-29 04:29:00,
2013-07-29 00:34:00,59.9,59.0,29.95,North,5,0.0,0.0,97,0.00,,,0.00,Wunderground v.1.15,2013-07-29 04:34:00,
2013-07-29 00:40:00,59.9,59.0,29.95,North,5,0.0,0.0,97,0.00,,,0.00,Wunderground v.1.15,2013-07-29 04:40:00,
2013-07-29 00:45:00,59.9,59.0,29.95,North,5,0.0,0.0,97,0.00,,,0.00,Wunderground v.1.15,2013-07-29 04:45:00,
2013-07-29 00:50:00,59.8,58.9,29.96,North,5,0.0,0.0,97,0.00,,,0.00,Wunderground v.1.15,2013-07-29 04:50:00,
2013-07-29 00:56:00,59.8,58.7,29.96,SW,217,0.0,2.0,96,0.00,,,0.00,Wunderground v.1.15,2013-07-29 04:56:00,
2013-07-29 01:01:00,59.7,58.6,29.96,SW,217,1.0,1.0,96,0.00,,,0.00,Wunderground v.1.15,2013-07-29 05:01:00,
2013-07-29 01:07:00,59.6,58.5,29.96,SSW,209,2.0,2.0,96,0.00,,,0.00,Wunderground v.1.15,2013-07-29 05:07:00,
2013-07-29 01:12:00,59.5,58.4,29.96,SSW,209,0.0,0.0,96,0.00,,,0.00,Wunderground v.1.15,2013-07-29 05:12:00,
2013-07-29 01:17:00,59.4,58.0,29.96,SSW,209,0.0,0.0,95,0.00,,,0.00,Wunderground v.1.15,2013-07-29 05:17:00,
2013-07-29 01:22:00,59.3,57.9,29.96,SSW,209,0.0,0.0,95,0.00,,,0.00,Wunderground v.1.15,2013-07-29 05:22:00,
2013-07-29 01:28:00,59.2,57.8,29.95,SSW,209,0.0,0.0,95,0.00,,,0.00,Wunderground v.1.15,2013-07-29 05:28:00,
2013-07-29 01:33:00,59.0,57.6,29.95,SSW,209,0.0,0.0,95,0.00,,,0.00,Wunderground v.1.15,2013-07-29 05:33:00,
2013-07-29 01:39:00,58.8,57.1,29.95,SSW,209,0.0,0.0,94,0.00,,,0.00,Wunderground v.1.15,2013-07-29 05:39:00,
2013-07-29 01:44:00,58.7,57.0,29.95,SSW,209,0.0,0.0,94,0.00,,,0.00,Wunderground v.1.15,2013-07-29 05:44:00,
2013-07-29 01:50:00,58.5,56.8,29.95,SSW,209,0.0,0.0,94,0.00,,,0.00,Wunderground v.1.15,2013-07-29 05:50:00,
2013-07-29 01:55:00,58.3,56.6,29.95,SSW,209,0.0,0.0,94,0.00,,,0.00,Wunderground v.1.15,2013-07-29 05:55:00,
2013-07-29 02:01:00,58.1,56.4,29.95,SSW,209,0.0,0.0,94,0.00,,,0.00,Wunderground v.1.15,2013-07-29 06:01:00,
2013-07-29 02:06:00,57.9,56.2,29.95,SSW,209,0.0,0.0,94,0.00,,,0.00,Wunderground v.1.15,2013-07-29 06:06:00,
2013-07-29 02:12:00,57.7,56.3,29.95,SSW,209,0.0,0.0,95,0.00,,,0.00,Wunderground v.1.15,2013-07-29 06:12:00,
2013-07-29 02:17:00,57.6,56.2,29.95,SSW,209,0.0,0.0,95,0.00,,,0.00,Wunderground v.1.15,2013-07-29 06:17:00,
2013-07-29 02:22:00,57.4,56.0,29.95,SSW,209,0.0,0.0,95,0.00,,,0.00,Wunderground v.1.15,2013-07-29 06:22:00,
2013-07-29 02:27:00,57.3,55.9,29.95,SSW,209,1.0,1.0,95,0.00,,,0.00,Wunderground v.1.15,2013-07-29 06:27:00,
2013-07-29 02:32:00,57.3,55.9,29.95,SSW,209,0.0,0.0,95,0.00,,,0.00,Wunderground v.1.15,2013-07-29 06:32:00,
2013-07-29 02:37:00,57.2,56.1,29.95,SSW,209,1.0,3.0,96,0.00,,,0.00,Wunderground v.1.15,2013-07-29 06:37:00,
2013-07-29 02:42:00,57.3,56.2,29.95,SSW,209,0.0,2.0,96,0.00,,,0.00,Wunderground v.1.15,2013-07-29 06:42:00,
2013-07-29 02:47:00,57.5,56.1,29.95,SSW,208,0.0,4.0,95,0.00,,,0.00,Wunderground v.1.15,2013-07-29 06:47:00,
2013-07-29 02:52:00,57.6,56.2,29.95,SSW,206,0.0,2.0,95,0.00,,,0.00,Wunderground v.1.15,2013-07-29 06:52:00,
2013-07-29 02:57:00,57.6,56.2,29.95,SW,227,0.0,4.0,95,0.00,,,0.00,Wunderground v.1.15,2013-07-29 06:57:00,
2013-07-29 03:02:00,57.6,56.2,29.95,SW,227,0.0,0.0,95,0.00,,,0.00,Wunderground v.1.15,2013-07-29 07:02:00,
2013-07-29 03:07:00,57.6,56.2,29.95,SSW,207,0.0,2.0,95,0.00,,,0.00,Wunderground v.1.15,2013-07-29 07:07:00,
2013-07-29 03:12:00,57.6,56.2,29.95,SSW,205,0.0,4.0,95,0.00,,,0.00,Wunderground v.1.15,2013-07-29 07:12:00,
2013-07-29 03:17:00,57.6,56.2,29.95,SSW,205,0.0,4.0,95,0.00,,,0.00,Wunderground v.1.15,2013-07-29 07:17:00,
2013-07-29 03:22:00,57.6,56.2,29.96,South,171,0.0,3.0,95,0.00,,,0.00,Wunderground v.1.15,2013-07-29 07:22:00,
2013-07-29 03:27:00,57.6,56.2,29.96,South,171,2.0,3.0,95,0.00,,,0.00,Wunderground v.1.15,2013-07-29 07:27:00,
2013-07-29 03:32:00,57.6,56.2,29.96,South,186,0.0,1.0,95,0.00,,,0.00,Wunderground v.1.15,2013-07-29 07:32:00,
2013-07-29 03:37:00,57.7,56.3,29.96,South,186,0.0,2.0,95,0.00,,,0.00,Wunderground v.1.15,2013-07-29 07:37:00,
2013-07-29 03:42:00,57.7,56.3,29.96,SW,232,1.0,1.0,95,0.00,,,0.00,Wunderground v.1.15,2013-07-29 07:42:00,
2013-07-29 03:47:00,57.6,56.2,29.96,SW,232,0.0,1.0,95,0.00,,,0.00,Wunderground v.1.15,2013-07-29 07:47:00,
2013-07-29 03:52:00,57.7,56.3,29.96,SW,229,0.0,2.0,95,0.00,,,0.00,Wunderground v.1.15,2013-07-29 07:52:00,
2013-07-29 03:57:00,57.7,56.3,29.96,SW,229,0.0,2.0,95,0.00,,,0.00,Wunderground v.1.15,2013-07-29 07:57:00,
2013-07-29 04:02:00,57.7,56.3,29.96,SW,229,0.0,1.0,95,0.00,,,0.00,Wunderground v.1.15,2013-07-29 08:02:00,
2013-07-29 04:07:00,57.8,56.4,29.96,South,171,1.0,4.0,95,0.00,,,0.00,Wunderground v.1.15,2013-07-29 08:07:00,
2013-07-29 04:12:00,57.9,56.5,29.96,South,171,0.0,2.0,95,0.00,,,0.00,Wunderground v.1.15,2013-07-29 08:12:00,
2013-07-29 04:17:00,58.0,56.6,29.96,South,182,0.0,3.0,95,0.00,,,0.00,Wunderground v.1.15,2013-07-29 08:17:00,
2013-07-29 04:22:00,57.9,56.5,29.96,South,186,3.0,3.0,95,0.00,,,0.00,Wunderground v.1.15,2013-07-29 08:22:00,
2013-07-29 04:27:00,58.0,56.3,29.96,SSW,203,2.0,4.0,94,0.00,,,0.00,Wunderground v.1.15,2013-07-29 08:27:00,
2013-07-29 04:32:00,58.0,56.3,29.96,SSW,203,0.0,1.0,94,0.00,,,0.00,Wunderground v.1.15,2013-07-29 08:32:00,
2013-07-29 04:37:00,58.0,56.3,29.96,SSW,198,0.0,2.0,94,0.00,,,0.00,Wunderground v.1.15,2013-07-29 08:37:00,
2013-07-29 04:42:00,58.0,56.3,29.96,WSW,242,0.0,2.0,94,0.00,,,0.00,Wunderground v.1.15,2013-07-29 08:42:00,
2013-07-29 04:47:00,58.1,56.4,29.95,SW,229,1.0,2.0,94,0.00,,,0.00,Wunderground v.1.15,2013-07-29 08:47:00,
2013-07-29 04:52:00,58.1,56.4,29.95,SSE,166,1.0,3.0,94,0.00,,,0.00,Wunderground v.1.15,2013-07-29 08:52:00,
2013-07-29 04:57:00,58.3,56.3,29.95,SSW,198,0.0,3.0,93,0.00,,,0.00,Wunderground v.1.15,2013-07-29 08:57:00,
2013-07-29 05:02:00,58.4,56.4,29.96,South,176,3.0,3.0,93,0.00,,,0.00,Wunderground v.1.15,2013-07-29 09:02:00,
2013-07-29 05:07:00,58.5,56.5,29.96,West,276,0.0,3.0,93,0.00,,,0.00,Wunderground v.1.15,2013-07-29 09:07:00,
2013-07-29 05:12:00,58.7,56.4,29.96,South,188,3.0,4.0,92,0.00,,,0.00,Wunderground v.1.15,2013-07-29 09:12:00,
2013-07-29 05:17:00,58.9,56.6,29.96,SW,227,4.0,4.0,92,0.00,,,0.00,Wunderground v.1.15,2013-07-29 09:17:00,
2013-07-29 05:22:00,59.0,56.4,29.96,WSW,240,2.0,3.0,91,0.00,,,0.00,Wunderground v.1.15,2013-07-29 09:22:00,
2013-07-29 05:27:00,59.2,56.6,29.96,West,262,0.0,3.0,91,0.00,,,0.00,Wunderground v.1.15,2013-07-29 09:27:00,
2013-07-29 05:32:00,59.3,56.7,29.96,South,190,2.0,3.0,91,0.00,,,0.00,Wunderground v.1.15,2013-07-29 09:32:00,
2013-07-29 05:37:00,59.3,56.4,29.97,NW,307,3.0,5.0,90,0.00,,,0.00,Wunderground v.1.15,2013-07-29 09:37:00,
2013-07-29 05:42:00,59.3,56.4,29.97,SW,215,3.0,3.0,90,0.00,,,0.00,Wunderground v.1.15,2013-07-29 09:42:00,
2013-07-29 05:47:00,59.3,56.1,29.97,WSW,254,0.0,4.0,89,0.00,,,0.00,Wunderground v.1.15,2013-07-29 09:47:00,
2013-07-29 05:52:00,59.3,56.1,29.97,South,173,0.0,5.0,89,0.00,,,0.00,Wunderground v.1.15,2013-07-29 09:52:00,
2013-07-29 05:57:00,59.3,56.1,29.97,South,173,0.0,5.0,89,0.00,,,0.00,Wunderground v.1.15,2013-07-29 09:57:00,
2013-07-29 06:02:00,59.2,56.0,29.97,SSW,202,1.0,1.0,89,0.00,,,0.00,Wunderground v.1.15,2013-07-29 10:02:00,
2013-07-29 06:08:00,59.1,55.9,29.98,SSE,166,0.0,2.0,89,0.00,,,0.00,Wunderground v.1.15,2013-07-29 10:08:00,
2013-07-29 06:13:00,59.1,56.2,29.98,South,180,0.0,0.0,90,0.00,,,0.00,Wunderground v.1.15,2013-07-29 10:13:00,
2013-07-29 06:18:00,59.1,55.9,29.98,South,180,0.0,1.0,89,0.00,,,0.00,Wunderground v.1.15,2013-07-29 10:18:00,
2013-07-29 06:23:00,59.1,55.9,29.98,South,180,0.0,3.0,89,0.00,,,0.00,Wunderground v.1.15,2013-07-29 10:23:00,
2013-07-29 06:28:00,59.1,56.2,29.97,South,180,0.0,3.0,90,0.00,,,0.00,Wunderground v.1.15,2013-07-29 10:28:00,
2013-07-29 06:33:00,59.2,56.3,29.98,South,180,0.0,0.0,90,0.00,,,0.00,Wunderground v.1.15,2013-07-29 10:33:00,
2013-07-29 06:38:00,59.1,56.2,29.98,South,180,0.0,2.0,90,0.00,,,0.00,Wunderground v.1.15,2013-07-29 10:38:00,
2013-07-29 06:43:00,59.1,56.2,29.98,South,180,0.0,0.0,90,0.00,,,0.00,Wunderground v.1.15,2013-07-29 10:43:00,
2013-07-29 06:49:00,59.1,56.2,29.98,South,180,0.0,1.0,90,0.00,,,0.00,Wunderground v.1.15,2013-07-29 10:49:00,
2013-07-29 06:54:00,59.1,56.2,29.98,South,180,0.0,0.0,90,0.00,,,0.00,Wunderground v.1.15,2013-07-29 10:54:00,
2013-07-29 06:59:00,59.1,55.9,29.99,South,182,3.0,4.0,89,0.00,,,0.00,Wunderground v.1.15,2013-07-29 10:59:00,
2013-07-29 07:04:00,59.3,56.4,29.99,South,182,0.0,0.0,90,0.00,,,0.00,Wunderground v.1.15,2013-07-29 11:04:00,
2013-07-29 07:09:00,59.4,56.5,29.99,South,184,0.0,0.0,90,0.00,,,0.00,Wunderground v.1.15,2013-07-29 11:09:00,
2013-07-29 07:14:00,59.4,56.2,29.99,SSW,203,1.0,1.0,89,0.00,,,0.00,Wunderground v.1.15,2013-07-29 11:14:00,
2013-07-29 07:19:00,59.6,56.4,29.98,SW,217,0.0,0.0,89,0.00,,,0.00,Wunderground v.1.15,2013-07-29 11:19:00,
2013-07-29 07:24:00,59.7,56.5,29.98,SW,217,0.0,2.0,89,0.00,,,0.00,Wunderground v.1.15,2013-07-29 11:24:00,
2013-07-29 07:29:00,59.7,56.5,29.98,SW,217,2.0,2.0,89,0.00,,,0.00,Wunderground v.1.15,2013-07-29 11:29:00,
2013-07-29 07:35:00,59.8,56.2,29.98,SW,217,0.0,3.0,88,0.00,,,0.00,Wunderground v.1.15,2013-07-29 11:35:00,
2013-07-29 07:40:00,60.0,56.4,29.98,WSW,250,0.0,1.0,88,0.00,,,0.00,Wunderground v.1.15,2013-07-29 11:40:00,
2013-07-29 07:45:00,60.0,56.4,29.99,SSW,206,1.0,2.0,88,0.00,,,0.00,Wunderground v.1.15,2013-07-29 11:45:00,
2013-07-29 07:50:00,60.1,56.5,29.99,SSW,205,0.0,1.0,88,0.00,,,0.00,Wunderground v.1.15,2013-07-29 11:50:00,
2013-07-29 07:55:00,60.0,56.1,29.99,WSW,237,0.0,2.0,87,0.00,,,0.00,Wunderground v.1.15,2013-07-29 11:55:00,
2013-07-29 08:00:00,60.1,56.5,29.99,WSW,237,0.0,0.0,88,0.00,,,0.00,Wunderground v.1.15,2013-07-29 12:00:00,
2013-07-29 08:05:00,60.2,56.6,29.99,WSW,237,1.0,1.0,88,0.00,,,0.00,Wunderground v.1.15,2013-07-29 12:05:00,
2013-07-29 08:10:00,60.2,56.6,29.99,South,177,0.0,1.0,88,0.00,,,0.00,Wunderground v.1.15,2013-07-29 12:10:00,
2013-07-29 08:16:00,60.3,56.7,29.99,South,177,0.0,1.0,88,0.00,,,0.00,Wunderground v.1.15,2013-07-29 12:16:00,
2013-07-29 08:22:00,60.4,56.8,29.99,South,177,1.0,1.0,88,0.00,,,0.00,Wunderground v.1.15,2013-07-29 12:22:00,
2013-07-29 08:27:00,60.6,57.0,29.99,SSW,207,3.0,3.0,88,0.00,,,0.00,Wunderground v.1.15,2013-07-29 12:27:00,
2013-07-29 08:32:00,60.8,56.9,29.99,SW,220,0.0,4.0,87,0.00,,,0.00,Wunderground v.1.15,2013-07-29 12:32:00,
2013-07-29 08:38:00,61.1,56.9,29.99,SSE,161,0.0,4.0,86,0.00,,,0.00,Wunderground v.1.15,2013-07-29 12:38:00,
2013-07-29 08:43:00,61.3,57.1,29.99,SSW,198,0.0,1.0,86,0.00,,,0.00,Wunderground v.1.15,2013-07-29 12:43:00,
2013-07-29 08:48:00,61.4,57.2,29.99,SSE,156,1.0,3.0,86,0.00,,,0.00,Wunderground v.1.15,2013-07-29 12:48:00,
2013-07-29 08:54:00,61.5,57.6,30.00,South,184,0.0,1.0,87,0.00,,,0.00,Wunderground v.1.15,2013-07-29 12:54:00,
2013-07-29 08:59:00,61.6,57.4,30.00,South,175,0.0,0.0,86,0.00,,,0.00,Wunderground v.1.15,2013-07-29 12:59:00,
2013-07-29 09:05:00,62.1,57.9,30.00,South,175,5.0,5.0,86,0.00,,,0.00,Wunderground v.1.15,2013-07-29 13:05:00,
2013-07-29 09:10:00,62.6,57.7,30.00,SW,219,0.0,2.0,84,0.00,,,0.00,Wunderground v.1.15,2013-07-29 13:10:00,
2013-07-29 09:15:00,63.0,57.4,30.00,SSW,211,1.0,3.0,82,0.00,,,0.00,Wunderground v.1.15,2013-07-29 13:15:00,
2013-07-29 09:20:00,63.5,58.2,30.00,WNW,294,0.0,1.0,83,0.00,,,0.00,Wunderground v.1.15,2013-07-29 13:20:00,
2013-07-29 09:25:00,63.9,58.0,30.00,SSW,200,1.0,6.0,81,0.00,,,0.00,Wunderground v.1.15,2013-07-29 13:25:00,
2013-07-29 09:30:00,64.3,57.6,30.00,SW,216,2.0,3.0,79,0.00,,,0.00,Wunderground v.1.15,2013-07-29 13:30:00,
2013-07-29 09:35:00,64.7,58.4,30.00,SW,217,0.0,4.0,80,0.00,,,0.00,Wunderground v.1.15,2013-07-29 13:35:00,
2013-07-29 09:40:00,65.1,58.1,30.00,East,81,5.0,6.0,78,0.00,,,0.00,Wunderground v.1.15,2013-07-29 13:40:00,
2013-07-29 09:45:00,65.7,58.3,30.00,South,176,5.0,7.0,77,0.00,,,0.00,Wunderground v.1.15,2013-07-29 13:45:00,
2013-07-29 09:50:00,65.8,58.4,30.00,SW,232,1.0,2.0,77,0.00,,,0.00,Wunderground v.1.15,2013-07-29 13:50:00,
2013-07-29 09:56:00,66.1,58.7,30.00,SSW,193,2.0,4.0,77,0.00,,,0.00,Wunderground v.1.15,2013-07-29 13:56:00,
2013-07-29 10:01:00,66.6,59.2,30.00,SSW,198,1.0,4.0,77,0.00,,,0.00,Wunderground v.1.15,2013-07-29 14:01:00,
2013-07-29 10:06:00,67.0,58.4,30.00,NNE,13,2.0,4.0,74,0.00,,,0.00,Wunderground v.1.15,2013-07-29 14:06:00,
2013-07-29 10:11:00,67.1,58.9,30.00,SE,129,1.0,3.0,75,0.00,,,0.00,Wunderground v.1.15,2013-07-29 14:11:00,
2013-07-29 10:17:00,67.5,59.7,30.00,East,98,1.0,4.0,76,0.00,,,0.00,Wunderground v.1.15,2013-07-29 14:17:00,
2013-07-29 10:22:00,67.4,58.8,30.00,SSW,212,0.0,3.0,74,0.00,,,0.00,Wunderground v.1.15,2013-07-29 14:22:00,
2013-07-29 10:27:00,67.7,60.2,30.00,WSW,254,2.0,3.0,77,0.00,,,0.00,Wunderground v.1.15,2013-07-29 14:27:00,
2013-07-29 10:33:00,68.3,59.7,30.00,SSE,160,2.0,3.0,74,0.00,,,0.00,Wunderground v.1.15,2013-07-29 14:33:00,
2013-07-29 10:38:00,68.5,59.5,30.00,East,89,1.0,4.0,73,0.00,,,0.00,Wunderground v.1.15,2013-07-29 14:38:00,
2013-07-29 10:43:00,68.9,59.5,30.00,East,86,0.0,5.0,72,0.00,,,0.00,Wunderground v.1.15,2013-07-29 14:43:00,
2013-07-29 10:48:00,69.9,60.1,30.00,East,86,1.0,5.0,71,0.00,,,0.00,Wunderground v.1.15,2013-07-29 14:48:00,
2013-07-29 10:54:00,69.8,58.8,30.00,SW,221,1.0,4.0,68,0.00,,,0.00,Wunderground v.1.15,2013-07-29 14:54:00,
2013-07-29 11:00:00,69.8,58.8,30.00,SSW,202,1.0,2.0,68,0.00,,,0.00,Wunderground v.1.15,2013-07-29 15:00:00,
2013-07-29 11:05:00,69.5,57.2,30.00,WSW,244,7.0,8.0,65,0.00,,,0.00,Wunderground v.1.15,2013-07-29 15:05:00,
2013-07-29 11:10:00,69.2,57.8,30.00,WNW,293,0.0,2.0,67,0.00,,,0.00,Wunderground v.1.15,2013-07-29 15:10:00,
2013-07-29 11:16:00,69.7,59.5,30.00,SSW,205,3.0,4.0,70,0.00,,,0.00,Wunderground v.1.15,2013-07-29 15:16:00,
2013-07-29 11:21:00,69.7,57.0,30.00,WNW,283,0.0,4.0,64,0.00,,,0.00,Wunderground v.1.15,2013-07-29 15:21:00,
2013-07-29 11:26:00,70.0,58.1,30.01,NW,307,0.0,4.0,66,0.00,,,0.00,Wunderground v.1.15,2013-07-29 15:26:00,
2013-07-29 11:32:00,70.4,56.8,30.00,SW,215,2.0,6.0,62,0.00,,,0.00,Wunderground v.1.15,2013-07-29 15:32:00,
2013-07-29 11:38:00,70.8,57.6,30.01,SSW,194,4.0,7.0,63,0.00,,,0.00,Wunderground v.1.15,2013-07-29 15:38:00,
2013-07-29 11:43:00,71.2,57.5,30.01,WNW,302,1.0,4.0,62,0.00,,,0.00,Wunderground v.1.15,2013-07-29 15:43:00,
2013-07-29 11:48:00,71.3,57.6,30.00,SW,229,3.0,4.0,62,0.00,,,0.00,Wunderground v.1.15,2013-07-29 15:48:00,
2013-07-29 11:53:00,71.6,57.9,30.01,NNW,333,1.0,5.0,62,0.00,,,0.00,Wunderground v.1.15,2013-07-29 15:53:00,
2013-07-29 11:58:00,71.7,56.6,30.01,WNW,293,1.0,5.0,59,0.00,,,0.00,Wunderground v.1.15,2013-07-29 15:58:00,
2013-07-29 12:03:00,71.9,57.7,30.00,SW,225,0.0,5.0,61,0.00,,,0.00,Wunderground v.1.15,2013-07-29 16:03:00,
2013-07-29 12:09:00,71.9,56.3,30.00,NW,312,3.0,3.0,58,0.00,,,0.00,Wunderground v.1.15,2013-07-29 16:09:00,
2013-07-29 12:14:00,71.5,56.9,30.01,SW,234,0.0,6.0,60,0.00,,,0.00,Wunderground v.1.15,2013-07-29 16:14:00,
2013-07-29 12:19:00,71.3,55.8,30.01,NW,315,7.0,9.0,58,0.00,,,0.00,Wunderground v.1.15,2013-07-29 16:19:00,
2013-07-29 12:24:00,71.7,55.7,30.01,ENE,71,1.0,9.0,57,0.00,,,0.00,Wunderground v.1.15,2013-07-29 16:24:00,
2013-07-29 12:29:00,72.5,57.8,30.01,WSW,254,3.0,4.0,60,0.00,,,0.00,Wunderground v.1.15,2013-07-29 16:29:00,
2013-07-29 12:34:00,72.9,55.3,30.01,North,360,4.0,9.0,54,0.00,,,0.00,Wunderground v.1.15,2013-07-29 16:34:00,
2013-07-29 12:39:00,72.5,55.4,30.01,West,259,0.0,4.0,55,0.00,,,0.00,Wunderground v.1.15,2013-07-29 16:39:00,
2013-07-29 12:45:00,72.6,56.0,30.01,NW,309,2.0,4.0,56,0.00,,,0.00,Wunderground v.1.15,2013-07-29 16:45:00,
2013-07-29 12:50:00,72.7,56.1,30.01,NW,318,4.0,4.0,56,0.00,,,0.00,Wunderground v.1.15,2013-07-29 16:50:00,
2013-07-29 12:55:00,72.2,55.1,30.01,North,5,4.0,8.0,55,0.00,,,0.00,Wunderground v.1.15,2013-07-29 16:55:00,
2013-07-29 13:00:00,71.8,57.2,30.01,WSW,243,3.0,6.0,60,0.00,,,0.00,Wunderground v.1.15,2013-07-29 17:00:00,
2013-07-29 13:05:00,71.2,56.6,30.02,NW,317,0.0,6.0,60,0.00,,,0.00,Wunderground v.1.15,2013-07-29 17:05:00,
2013-07-29 13:12:00,70.6,58.3,30.02,NW,309,0.0,2.0,65,0.00,,,0.00,Wunderground v.1.15,2013-07-29 17:12:00,
2013-07-29 13:17:00,70.2,55.7,30.02,SSW,203,0.0,4.0,60,0.00,,,0.00,Wunderground v.1.15,2013-07-29 17:17:00,
2013-07-29 13:22:00,69.7,54.7,30.02,NW,319,3.0,5.0,59,0.00,,,0.00,Wunderground v.1.15,2013-07-29 17:22:00,
2013-07-29 13:27:00,69.6,56.0,30.02,SW,227,1.0,9.0,62,0.00,,,0.00,Wunderground v.1.15,2013-07-29 17:27:00,
2013-07-29 13:33:00,69.8,57.1,30.02,South,180,3.0,6.0,64,0.00,,,0.00,Wunderground v.1.15,2013-07-29 17:33:00,
2013-07-29 13:38:00,70.2,56.6,30.02,WSW,248,5.0,6.0,62,0.00,,,0.00,Wunderground v.1.15,2013-07-29 17:38:00,
2013-07-29 13:44:00,70.2,57.4,30.02,WNW,285,3.0,5.0,64,0.00,,,0.00,Wunderground v.1.15,2013-07-29 17:44:00,
2013-07-29 13:49:00,70.5,58.2,30.02,SSW,200,4.0,4.0,65,0.00,,,0.00,Wunderground v.1.15,2013-07-29 17:49:00,
2013-07-29 13:54:00,70.4,56.8,30.02,South,187,2.0,7.0,62,0.00,,,0.00,Wunderground v.1.15,2013-07-29 17:54:00,
2013-07-29 14:00:00,70.5,58.2,30.02,South,178,2.0,3.0,65,0.00,,,0.00,Wunderground v.1.15,2013-07-29 18:00:00,
2013-07-29 14:05:00,70.5,57.7,30.02,West,277,2.0,8.0,64,0.00,,,0.00,Wunderground v.1.15,2013-07-29 18:05:00,
2013-07-29 14:10:00,70.6,57.8,30.02,SW,216,5.0,5.0,64,0.00,,,0.00,Wunderground v.1.15,2013-07-29 18:10:00,
2013-07-29 14:15:00,70.9,58.5,30.02,WNW,299,6.0,6.0,65,0.00,,,0.00,Wunderground v.1.15,2013-07-29 18:15:00,
2013-07-29 14:21:00,71.3,57.2,30.02,SSW,200,1.0,7.0,61,0.00,,,0.00,Wunderground v.1.15,2013-07-29 18:21:00,
2013-07-29 14:26:00,71.1,56.5,30.02,WSW,258,1.0,8.0,60,0.00,,,0.00,Wunderground v.1.15,2013-07-29 18:26:00,
2013-07-29 14:31:00,71.7,57.5,30.02,SW,223,4.0,5.0,61,0.00,,,0.00,Wunderground v.1.15,2013-07-29 18:31:00,
2013-07-29 14:37:00,71.9,56.8,30.02,WSW,239,4.0,7.0,59,0.00,,,0.00,Wunderground v.1.15,2013-07-29 18:37:00,
2013-07-29 14:42:00,71.6,57.0,30.03,SSW,205,0.0,4.0,60,0.00,,,0.00,Wunderground v.1.15,2013-07-29 18:42:00,
2013-07-29 14:47:00,71.3,58.1,30.03,SSW,198,0.0,4.0,63,0.00,,,0.00,Wunderground v.1.15,2013-07-29 18:47:00,
2013-07-29 14:53:00,70.9,56.8,30.03,SSW,213,1.0,5.0,61,0.00,,,0.00,Wunderground v.1.15,2013-07-29 18:53:00,
2013-07-29 14:58:00,71.1,57.4,30.03,SSW,205,3.0,5.0,62,0.00,,,0.00,Wunderground v.1.15,2013-07-29 18:58:00,
2013-07-29 15:03:00,71.6,58.8,30.03,South,184,2.0,6.0,64,0.00,,,0.00,Wunderground v.1.15,2013-07-29 19:03:00,
2013-07-29 15:08:00,71.9,59.1,30.03,WSW,252,2.0,6.0,64,0.00,,,0.00,Wunderground v.1.15,2013-07-29 19:08:00,
2013-07-29 15:13:00,72.2,59.8,30.02,WNW,300,2.0,7.0,65,0.00,,,0.00,Wunderground v.1.15,2013-07-29 19:13:00,
2013-07-29 15:19:00,72.1,59.7,30.02,West,274,3.0,7.0,65,0.00,,,0.00,Wunderground v.1.15,2013-07-29 19:19:00,
2013-07-29 15:24:00,72.1,59.2,30.02,NNW,335,3.0,4.0,64,0.00,,,0.00,Wunderground v.1.15,2013-07-29 19:24:00,
2013-07-29 15:29:00,71.7,60.2,30.02,West,273,4.0,6.0,67,0.00,,,0.00,Wunderground v.1.15,2013-07-29 19:29:00,
2013-07-29 15:34:00,71.2,56.6,30.02,SSW,196,1.0,4.0,60,0.00,,,0.00,Wunderground v.1.15,2013-07-29 19:34:00,
2013-07-29 15:39:00,71.1,58.3,30.03,SSW,213,0.0,4.0,64,0.00,,,0.00,Wunderground v.1.15,2013-07-29 19:39:00,
2013-07-29 15:44:00,70.9,57.7,30.03,SW,218,0.0,3.0,63,0.00,,,0.00,Wunderground v.1.15,2013-07-29 19:44:00,
2013-07-29 15:50:00,70.8,60.5,30.03,West,263,3.0,3.0,70,0.00,,,0.00,Wunderground v.1.15,2013-07-29 19:50:00,
2013-07-29 15:55:00,70.5,59.0,30.03,WSW,253,0.0,4.0,67,0.00,,,0.00,Wunderground v.1.15,2013-07-29 19:55:00,
2013-07-29 16:00:00,70.2,57.4,30.03,West,269,1.0,5.0,64,0.00,,,0.00,Wunderground v.1.15,2013-07-29 20:00:00,
2013-07-29 16:06:00,69.9,59.3,30.03,West,275,0.0,5.0,69,0.00,,,0.00,Wunderground v.1.15,2013-07-29 20:06:00,
2013-07-29 16:11:00,69.6,59.0,30.03,WSW,238,1.0,3.0,69,0.00,,,0.00,Wunderground v.1.15,2013-07-29 20:11:00,
2013-07-29 16:16:00,69.4,58.4,30.03,West,269,2.0,3.0,68,0.00,,,0.00,Wunderground v.1.15,2013-07-29 20:16:00,
2013-07-29 16:21:00,69.2,58.6,30.03,West,259,0.0,7.0,69,0.00,,,0.00,Wunderground v.1.15,2013-07-29 20:21:00,
2013-07-29 16:26:00,68.8,60.2,30.04,South,182,0.0,7.0,74,0.00,,,0.00,Wunderground v.1.15,2013-07-29 20:26:00,
2013-07-29 16:31:00,68.3,58.5,30.04,WSW,255,2.0,5.0,71,0.00,,,0.00,Wunderground v.1.15,2013-07-29 20:31:00,
2013-07-29 16:36:00,67.9,58.9,30.04,WSW,238,0.0,5.0,73,0.00,,,0.00,Wunderground v.1.15,2013-07-29 20:36:00,
2013-07-29 16:41:00,67.7,59.9,30.04,West,277,1.0,3.0,76,0.00,,,0.00,Wunderground v.1.15,2013-07-29 20:41:00,
2013-07-29 16:46:00,67.7,58.7,30.04,South,182,5.0,11.0,73,0.00,,,0.00,Wunderground v.1.15,2013-07-29 20:46:00,
2013-07-29 16:52:00,67.9,59.3,30.04,SSW,205,2.0,4.0,74,0.00,,,0.00,Wunderground v.1.15,2013-07-29 20:52:00,
2013-07-29 16:57:00,67.9,58.9,30.04,WSW,246,3.0,6.0,73,0.00,,,0.00,Wunderground v.1.15,2013-07-29 20:57:00,
2013-07-29 17:02:00,67.8,58.8,30.04,SW,219,5.0,7.0,73,0.00,,,0.00,Wunderground v.1.15,2013-07-29 21:02:00,
2013-07-29 17:07:00,67.6,59.0,30.04,West,261,2.0,7.0,74,0.00,,,0.00,Wunderground v.1.15,2013-07-29 21:07:00,
2013-07-29 17:12:00,67.6,59.4,30.04,WSW,254,1.0,5.0,75,0.00,,,0.00,Wunderground v.1.15,2013-07-29 21:12:00,
2013-07-29 17:17:00,67.6,59.4,30.04,West,269,2.0,5.0,75,0.00,,,0.00,Wunderground v.1.15,2013-07-29 21:17:00,
2013-07-29 17:22:00,67.8,60.0,30.04,SW,231,3.0,5.0,76,0.00,,,0.00,Wunderground v.1.15,2013-07-29 21:22:00,
2013-07-29 17:28:00,67.9,59.7,30.04,WSW,255,3.0,5.0,75,0.00,,,0.00,Wunderground v.1.15,2013-07-29 21:28:00,
2013-07-29 17:33:00,68.5,59.9,30.04,South,190,1.0,5.0,74,0.00,,,0.00,Wunderground v.1.15,2013-07-29 21:33:00,
2013-07-29 17:38:00,69.0,59.6,30.04,NW,318,0.0,5.0,72,0.00,,,0.00,Wunderground v.1.15,2013-07-29 21:38:00,
2013-07-29 17:44:00,69.4,60.8,30.04,WSW,250,0.0,3.0,74,0.00,,,0.00,Wunderground v.1.15,2013-07-29 21:44:00,
2013-07-29 17:49:00,69.8,60.4,30.04,South,188,1.0,1.0,72,0.00,,,0.00,Wunderground v.1.15,2013-07-29 21:49:00,
2013-07-29 17:55:00,69.7,60.3,30.04,WSW,248,0.0,5.0,72,0.00,,,0.00,Wunderground v.1.15,2013-07-29 21:55:00,
2013-07-29 18:01:00,69.3,60.3,30.04,South,184,0.0,2.0,73,0.00,,,0.00,Wunderground v.1.15,2013-07-29 22:01:00,
2013-07-29 18:06:00,68.9,60.6,30.04,WSW,239,0.0,4.0,75,0.00,,,0.00,Wunderground v.1.15,2013-07-29 22:06:00,
2013-07-29 18:11:00,68.6,60.0,30.04,SW,235,0.0,3.0,74,0.00,,,0.00,Wunderground v.1.15,2013-07-29 22:11:00,
2013-07-29 18:17:00,68.3,59.7,30.03,SSE,153,1.0,3.0,74,0.00,,,0.00,Wunderground v.1.15,2013-07-29 22:17:00,
2013-07-29 18:22:00,68.0,60.2,30.04,SSE,153,0.0,1.0,76,0.00,,,0.00,Wunderground v.1.15,2013-07-29 22:22:00,
2013-07-29 18:28:00,67.8,60.3,30.04,SSW,195,2.0,3.0,77,0.00,,,0.00,Wunderground v.1.15,2013-07-29 22:28:00,
2013-07-29 18:33:00,67.8,60.0,30.04,SSW,195,2.0,2.0,76,0.00,,,0.00,Wunderground v.1.15,2013-07-29 22:33:00,
2013-07-29 18:39:00,67.9,61.1,30.04,SSW,196,0.0,3.0,79,0.00,,,0.00,Wunderground v.1.15,2013-07-29 22:39:00,
2013-07-29 18:44:00,67.8,60.3,30.04,SSW,196,0.0,2.0,77,0.00,,,0.00,Wunderground v.1.15,2013-07-29 22:44:00,
2013-07-29 18:49:00,67.8,60.0,30.04,SSW,200,0.0,0.0,76,0.00,,,0.00,Wunderground v.1.15,2013-07-29 22:49:00,
2013-07-29 18:54:00,68.0,59.8,30.04,SSW,201,1.0,4.0,75,0.00,,,0.00,Wunderground v.1.15,2013-07-29 22:54:00,
2013-07-29 18:59:00,68.2,60.0,30.04,WNW,284,0.0,1.0,75,0.00,,,0.00,Wunderground v.1.15,2013-07-29 22:59:00,
2013-07-29 19:05:00,68.3,59.3,30.04,WNW,284,0.0,1.0,73,0.00,,,0.00,Wunderground v.1.15,2013-07-29 23:05:00,
2013-07-29 19:10:00,68.2,58.8,30.04,WNW,284,0.0,0.0,72,0.00,,,0.00,Wunderground v.1.15,2013-07-29 23:10:00,
2013-07-29 19:16:00,68.3,59.7,30.04,WNW,286,1.0,3.0,74,0.00,,,0.00,Wunderground v.1.15,2013-07-29 23:16:00,
2013-07-29 19:22:00,68.3,59.7,30.05,West,266,1.0,1.0,74,0.00,,,0.00,Wunderground v.1.15,2013-07-29 23:22:00,
2013-07-29 19:27:00,68.4,60.2,30.05,SSE,167,0.0,3.0,75,0.00,,,0.00,Wunderground v.1.15,2013-07-29 23:27:00,
2013-07-29 19:32:00,68.6,60.4,30.04,South,178,1.0,1.0,75,0.00,,,0.00,Wunderground v.1.15,2013-07-29 23:32:00,
2013-07-29 19:37:00,68.8,60.2,30.04,WSW,256,0.0,4.0,74,0.00,,,0.00,Wunderground v.1.15,2013-07-29 23:37:00,
2013-07-29 19:42:00,68.8,60.2,30.04,SW,223,3.0,4.0,74,0.00,,,0.00,Wunderground v.1.15,2013-07-29 23:42:00,
2013-07-29 19:48:00,68.6,60.7,30.04,SW,232,0.0,4.0,76,0.00,,,0.00,Wunderground v.1.15,2013-07-29 23:48:00,
2013-07-29 19:54:00,68.4,60.5,30.05,SW,232,0.0,1.0,76,0.00,,,0.00,Wunderground v.1.15,2013-07-29 23:54:00,
2013-07-29 19:59:00,68.2,60.3,30.05,SW,232,0.0,1.0,76,0.00,,,0.00,Wunderground v.1.15,2013-07-29 23:59:00,
2013-07-29 20:04:00,68.0,60.5,30.05,SW,232,0.0,1.0,77,0.00,,,0.00,Wunderground v.1.15,2013-07-30 00:04:00,
2013-07-29 20:10:00,67.6,60.5,30.05,SW,232,3.0,3.0,78,0.00,,,0.00,Wunderground v.1.15,2013-07-30 00:10:00,
2013-07-29 20:15:00,67.4,59.9,30.05,West,265,0.0,6.0,77,0.00,,,0.00,Wunderground v.1.15,2013-07-30 00:15:00,
2013-07-29 20:20:00,67.3,60.6,30.05,West,265,0.0,1.0,79,0.00,,,0.00,Wunderground v.1.15,2013-07-30 00:20:00,
2013-07-29 20:25:00,66.9,59.8,30.05,West,277,2.0,2.0,78,0.00,,,0.00,Wunderground v.1.15,2013-07-30 00:25:00,
2013-07-29 20:30:00,66.7,59.6,30.05,WNW,294,0.0,1.0,78,0.00,,,0.00,Wunderground v.1.15,2013-07-30 00:30:00,
2013-07-29 20:35:00,66.4,59.3,30.06,NW,304,0.0,2.0,78,0.00,,,0.00,Wunderground v.1.15,2013-07-30 00:35:00,
2013-07-29 20:41:00,66.2,59.5,30.06,NW,304,0.0,2.0,79,0.00,,,0.00,Wunderground v.1.15,2013-07-30 00:41:00,
2013-07-29 20:46:00,66.0,59.3,30.06,NW,304,0.0,2.0,79,0.00,,,0.00,Wunderground v.1.15,2013-07-30 00:46:00,
2013-07-29 20:51:00,65.8,59.5,30.06,NW,304,0.0,0.0,80,0.00,,,0.00,Wunderground v.1.15,2013-07-30 00:51:00,
2013-07-29 20:58:00,65.5,59.2,30.06,NW,304,0.0,0.0,80,0.00,,,0.00,Wunderground v.1.15,2013-07-30 00:58:00,
2013-07-29 21:03:00,65.4,59.4,30.07,NW,304,1.0,1.0,81,0.00,,,0.00,Wunderground v.1.15,2013-07-30 01:03:00,
2013-07-29 21:08:00,65.3,59.7,30.07,NW,304,0.0,1.0,82,0.00,,,0.00,Wunderground v.1.15,2013-07-30 01:08:00,
2013-07-29 21:14:00,65.3,59.0,30.07,West,263,0.0,0.0,80,0.00,,,0.00,Wunderground v.1.15,2013-07-30 01:14:00,
2013-07-29 21:20:00,65.3,59.3,30.07,West,263,0.0,0.0,81,0.00,,,0.00,Wunderground v.1.15,2013-07-30 01:20:00,
2013-07-29 21:25:00,65.3,59.0,30.07,West,263,0.0,1.0,80,0.00,,,0.00,Wunderground v.1.15,2013-07-30 01:25:00,
2013-07-29 21:30:00,65.4,59.1,30.07,West,263,0.0,0.0,80,0.00,,,0.00,Wunderground v.1.15,2013-07-30 01:30:00,
2013-07-29 21:35:00,65.4,59.4,30.07,West,261,1.0,1.0,81,0.00,,,0.00,Wunderground v.1.15,2013-07-30 01:35:00,
2013-07-29 21:40:00,65.4,59.4,30.07,WSW,244,0.0,0.0,81,0.00,,,0.00,Wunderground v.1.15,2013-07-30 01:40:00,
2013-07-29 21:46:00,65.2,59.2,30.07,WSW,244,0.0,1.0,81,0.00,,,0.00,Wunderground v.1.15,2013-07-30 01:46:00,
2013-07-29 21:51:00,65.0,59.0,30.08,South,178,0.0,1.0,81,0.00,,,0.00,Wunderground v.1.15,2013-07-30 01:51:00,
2013-07-29 21:56:00,65.0,58.7,30.08,South,179,2.0,5.0,80,0.00,,,0.00,Wunderground v.1.15,2013-07-30 01:56:00,
2013-07-29 22:01:00,65.2,58.9,30.08,SW,236,1.0,1.0,80,0.00,,,0.00,Wunderground v.1.15,2013-07-30 02:01:00,
2013-07-29 22:07:00,65.3,59.0,30.08,WSW,238,0.0,2.0,80,0.00,,,0.00,Wunderground v.1.15,2013-07-30 02:07:00,
2013-07-29 22:12:00,65.4,58.7,30.08,West,261,2.0,3.0,79,0.00,,,0.00,Wunderground v.1.15,2013-07-30 02:12:00,
2013-07-29 22:17:00,65.4,58.7,30.08,SW,219,1.0,4.0,79,0.00,,,0.00,Wunderground v.1.15,2013-07-30 02:17:00,
2013-07-29 22:22:00,65.6,59.3,30.08,SSW,212,0.0,4.0,80,0.00,,,0.00,Wunderground v.1.15,2013-07-30 02:22:00,
2013-07-29 22:27:00,65.7,58.7,30.08,West,273,1.0,4.0,78,0.00,,,0.00,Wunderground v.1.15,2013-07-30 02:27:00,
2013-07-29 22:32:00,65.8,58.7,30.09,West,261,1.0,5.0,78,0.00,,,0.00,Wunderground v.1.15,2013-07-30 02:32:00,
2013-07-29 22:37:00,65.9,59.2,30.08,West,261,2.0,5.0,79,0.00,,,0.00,Wunderground v.1.15,2013-07-30 02:37:00,
2013-07-29 22:42:00,66.0,58.9,30.09,WSW,238,1.0,7.0,78,0.00,,,0.00,Wunderground v.1.15,2013-07-30 02:42:00,
2013-07-29 22:47:00,66.0,58.9,30.09,SW,220,0.0,7.0,78,0.00,,,0.00,Wunderground v.1.15,2013-07-30 02:47:00,
2013-07-29 22:53:00,66.0,58.9,30.09,WSW,246,3.0,3.0,78,0.00,,,0.00,Wunderground v.1.15,2013-07-30 02:53:00,
2013-07-29 22:58:00,66.1,58.7,30.09,SW,217,2.0,4.0,77,0.00,,,0.00,Wunderground v.1.15,2013-07-30 02:58:00,
2013-07-29 23:03:00,66.1,59.0,30.09,South,188,1.0,2.0,78,0.00,,,0.00,Wunderground v.1.15,2013-07-30 03:03:00,
2013-07-29 23:08:00,66.1,59.4,30.09,North,355,4.0,5.0,79,0.00,,,0.00,Wunderground v.1.15,2013-07-30 03:08:00,
2013-07-29 23:13:00,66.0,58.9,30.09,West,271,1.0,4.0,78,0.00,,,0.00,Wunderground v.1.15,2013-07-30 03:13:00,
2013-07-29 23:18:00,66.1,59.0,30.09,NW,309,2.0,5.0,78,0.00,,,0.00,Wunderground v.1.15,2013-07-30 03:18:00,
2013-07-29 23:23:00,66.0,58.9,30.09,South,184,2.0,4.0,78,0.00,,,0.00,Wunderground v.1.15,2013-07-30 03:23:00,
2013-07-29 23:28:00,65.9,59.2,30.09,WNW,303,3.0,4.0,79,0.00,,,0.00,Wunderground v.1.15,2013-07-30 03:28:00,
2013-07-29 23:34:00,65.9,59.2,30.09,SSW,202,0.0,3.0,79,0.00,,,0.00,Wunderground v.1.15,2013-07-30 03:34:00,
2013-07-29 23:39:00,65.9,59.2,30.09,SSW,197,0.0,4.0,79,0.00,,,0.00,Wunderground v.1.15,2013-07-30 03:39:00,
2013-07-29 23:44:00,65.7,59.0,30.09,WNW,284,2.0,3.0,79,0.00,,,0.00,Wunderground v.1.15,2013-07-30 03:44:00,
2013-07-29 23:49:00,65.7,59.4,30.09,SW,230,1.0,3.0,80,0.00,,,0.00,Wunderground v.1.15,2013-07-30 03:49:00,
2013-07-29 23:54:00,65.7,59.4,30.09,SSW,195,2.0,6.0,80,0.00,,,0.00,Wunderground v.1.15,2013-07-30 03:54:00,
2013-07-29 23:59:00,65.6,59.6,30.09,WSW,246,0.0,1.0,81,0.00,,,0.00,Wunderground v.1.15,2013-07-30 03:59:00,